This demonstration page uses our WeatherBlox Daily Observations layout. Learn more.

Left ArrowRight Arrow

44.8408, -93.29828

Hourly Observations for March 26, 2017

Temp ( °F °C ) Dew Point ( °F °C ) Humidity (%) Winds ( mph kmh ) Pressure ( in mb ) Visibility ( mi km ) Precip ( " mm )
12:35 am 00:35 Cloudy with Light Rain 38 3.3 35 1.7 89 89 ENE 9 15 30.06 1018 6 10 0.02 0.51
12:49 am 00:49 Cloudy with Light Rain 37 3 36 2 93 93 ENE 7 11 30.03 1017 7 11 0.03 0.76
12:53 am 00:53 Cloudy with Light Rain 38 3.3 35 1.7 89 89 ENE 7 11 30.03 1017 8 13 0.03 0.76
1:53 am 01:53 Cloudy 38 3.3 35 1.7 89 89 E 8 13 30.01 1016 10 16 0.01 0.25
2:14 am 02:14 Cloudy with Drizzle 38 3.3 34 1.1 86 86 E 10 17 30.03 1017 10 16 0.00 0.03
2:53 am 02:53 Cloudy with Drizzle 37 2.8 34 1.1 89 89 E 7 11 30.00 1016 7 11 0.01 0.25
3:37 am 03:37 Cloudy with Drizzle 37 2.8 34 1.1 89 89 E 8 13 30.00 1016 10 16 0.01 0.25
3:53 am 03:53 Cloudy with Drizzle 37 2.8 34 1.1 89 89 E 9 15 29.97 1015 10 16 0.01 0.25
4:16 am 04:16 Cloudy with Drizzle 37 2.8 34 1.1 89 89 ENE 7 11 30.00 1016 10 16 0.00 0.03
4:26 am 04:26 Cloudy with Drizzle 37 3 34 1 87 87 E 10 17 30.00 1016 7 11 0.00 0.00
4:53 am 04:53 Cloudy with Drizzle 37 2.8 33 0.6 86 86 E 7 11 29.96 1015 7 11 0.00 0.03
5:53 am 05:53 Cloudy 36 2.2 33 0.6 89 89 ENE 6 9 29.96 1015 10 16 0.01 0.25
6:47 am 06:47 Cloudy 36 2 34 1 93 93 ENE 8 13 30.00 1016 10 16 0.00 0.00
6:53 am 06:53 Cloudy 36 2.2 33 0.6 89 89 ENE 7 11 29.97 1015 10 16 0.00 0.00
7:53 am 07:53 Cloudy 37 2.8 33 0.6 86 86 VRB 6 9 29.97 1015 10 16 0.00 0.00
8:53 am 08:53 Cloudy 37 2.8 34 1.1 89 89 NE 7 11 29.97 1015 7 11 0.00 0.00
9:53 am 09:53 Cloudy 38 3.3 34 1.1 86 86 NE 7 11 29.96 1015 9 14 0.00 0.00
10:53 am 10:53 Cloudy 39 3.9 34 1.1 82 82 NE 6 9 29.96 1015 10 16 0.00 0.00
11:29 am 11:29 Cloudy 40 4.4 35 1.7 83 83 N 7 11 29.97 1015 10 16 0.00 0.00
11:53 am 11:53 Cloudy 39 3.9 35 1.7 86 86 ENE 7 11 29.95 1014 10 16 0.00 0.00
12:53 pm 12:53 Cloudy 40 4.4 35 1.7 83 83 VRB 5 7 29.93 1014 10 16 0.00 0.00
1:39 pm 13:39 Cloudy 41 5 35 1.7 79 79 VRB 5 7 29.94 1014 10 16 0.00 0.00
1:53 pm 13:53 Cloudy 42 5.6 35 1.7 76 76 NE 6 9 29.93 1013 10 16 0.00 0.00
2:53 pm 14:53 Cloudy 42 5.6 36 2.2 79 79 NNW 6 9 29.92 1013 10 16 0.00 0.00
3:53 pm 15:53 Cloudy 44 6.7 36 2.2 73 73 NNE 6 9 29.92 1013 10 16 0.00 0.00
4:17 pm 16:17 Cloudy 44 6.7 36 2.2 73 73 NNW 7 11 29.94 1014 10 16 0.00 0.00
4:53 pm 16:53 Cloudy 44 6.7 36 2.2 73 73 N 7 11 29.92 1013 10 16 0.00 0.00
5:35 pm 17:35 Cloudy 44 6.7 36 2.2 73 73 NNE 6 9 29.94 1014 10 16 0.00 0.00
5:53 pm 17:53 Cloudy 43 6.1 36 2.2 76 76 N 7 11 29.93 1014 10 16 0.00 0.00
6:53 pm 18:53 Cloudy 43 6.1 36 2.2 76 76 NNW 7 11 29.95 1014 10 16 0.00 0.00
7:53 pm 19:53 Cloudy 41 5 36 2.2 82 82 N 7 11 29.95 1014 10 16 0.00 0.00
8:53 pm 20:53 Cloudy with Drizzle 40 4.4 36 2.2 86 86 NNE 7 11 29.95 1014 6 10 0.00 0.03
9:27 pm 21:27 Cloudy with Drizzle 40 4.4 36 2.2 86 86 N 9 15 29.97 1015 7 11 0.00 0.03
9:44 pm 21:44 Cloudy 39 4 36 2 87 87 NNE 8 13 30.00 1016 10 16 0.00 0.00
9:53 pm 21:53 Cloudy 39 3.9 36 2.2 89 89 NNE 7 11 29.96 1014 10 16 0.00 0.03
10:05 pm 22:05 Cloudy 39 3.9 35 1.7 86 86 VRB 7 11 30.00 1016 10 16 0.00 0.00
10:53 pm 22:53 Cloudy 40 4.4 35 1.7 83 83 N 5 7 29.98 1015 10 16 0.00 0.00
11:23 pm 23:23 Cloudy 39 3.9 35 1.7 86 86 N 3 6 30.00 1016 10 16 0.00 0.00
11:53 pm 23:53 Cloudy 39 3.9 35 1.7 86 86 N 5 7 29.96 1015 10 16 0.00 0.00

Powered by AerisWeather